Location: Drummondville
(45.8830°N, 72.4830°W)
Time: 15:37:07
(UTC-05:00)

Envisat - Pass Details

Date: 19 November 2017
Orbit: 764 x 766 km, 98.2° (Epoch: 24 November)

Event Time Altitude Azimuth Distance (km) Brightness Sun altitude
Exits shadow 18:50:31 12° 2° (N) 2,195 5.3 -26.9°
Drops below altitude 10° 18:50:50 10° 1° (N) 2,312 5.4 -27.0°
Sets 18:53:16 0° 354° (N) 3,242 6.3 -27.4°
